Regional Weather Roundup
Issued by NWS New Orleans/Baton Rouge, LA

Home | Current Version | Previous Version | Graphics & Text | Print | Product List | Glossary On
Versions: 1 2 3 4 5 6 7 8 9 10 11 12 13 14 15 16 17 18 19 20 21 22 23 24 25 26 27 28 29 30 31 32 33 34 35 36 37 38 39 40 41 42 43 44 45 46 47 48 49 50
537
ASUS44 KLIX 291601
RWRLIX
NEW ORLEANS REGIONAL WEATHER ROUNDUP
NATIONAL WEATHER SERVICE NEW ORLEANS LA
1100 AM CDT TUE JUL 29 2014

NOTE: "FAIR" INDICATES FEW OR NO CLOUDS BELOW 12,000 FEET WITH NO
      SIGNIFICANT WEATHER AND/OR OBSTRUCTIONS TO VISIBILITY.
      SKY/WX - SKY CONDITION AND SIGNIFICANT WEATHER.
      TMP - AIR TEMPERATURE.     DP    - DEWPOINT TEMPERATURE.
      RH  - RELATIVE HUMIDITY.   PRES  - PRESSURE.
      HI  - HEAT INDEX.          WCI   - WIND CHILL INDEX.

*  THESE STATIONS ARE NOT NWS OR FAA STATIONS AND ARE NOT UNDER
   NWS QUALITY CONTROL.

LAZ038-040-048-061>063-065>067-069-291700-
SOUTHEAST LOUISIANA

CITY           SKY/WX    TMP DP  RH WIND       PRES   REMARKS
N.O. AUDUBON   NOT AVBL
N.O. INTL ARPT CLOUDY    85  69  58 NE9       30.08R
N.O. LAKEFRONT CLOUDY    82  68  62 NE8       30.09R
N.O. DOWNTOWN*   N/A     84  63  48 NE3       30.08R
SLIDELL        PTSUNNY   83  67  58 NE8       30.08R
BATON ROUGE    MOSUNNY   84  66  54 VRB5      30.10R
BOOTHVILLE     PTSUNNY   84  71  65 VRB3      30.08R
BELLE CHASSE   CLOUDY    85  66  53 NE6       30.07R
BOGALUSA*        N/A     84  66  53 NE5       30.10S
GALLIANO*      NOT AVBL
NEW ROADS*       N/A     82  67  61 MISG      30.11R
GONZALES*      PTSUNNY   80  71  73 NE3       30.09R
HAMMOND*       PTSUNNY   86  64  48 CALM      30.11R
HOUMA*         NOT AVBL
PORT FOURCHON* PTSUNNY   84  73  70 NE9       30.08S

$$

MSZ070-080>082-291700-
SOUTHERN MISSISSIPPI

CITY           SKY/WX    TMP DP  RH WIND       PRES   REMARKS
MCCOMB         SUNNY     82  62  50 NE5       30.11R
GULFPORT       PTSUNNY   88  65  46 N6        30.06R
BILOXI         PTSUNNY   83  66  56 VRB6      30.07R
PASCAGOULA     MOSUNNY   85  66  53 N10       30.06R
STENNIS ARPT*  MOSUNNY  N/A N/A N/A NE6       30.08R

$$

COASTAL OBSERVATIONS
LAKE AND NEARSHORE STATIONS

STATION/POSITION TIME  TEMP    WIND        PRES    WAVE
                       AIR SEA DIR/SP/G            HT/PER
                 (UTC) (F)     (DEG/KT/KT) (MB)    (FT/S)
PASCAGOULA       1500   83      10/  7/  9 1017.3
WAVELAND YACHT   1500   80      50/  7/  9 1017.6
GRAND ISLE       1500   83 86   60/  6/  8 1018.7
SOUTHWEST PASS   1500   87 84   40/  6/  7 1018.6
NEW CANAL        1500   80 83   50/  7/  9 1018.8
SHELL BEACH      1500   82 81   60/  7/ 10 1017.9

OFFSHORE STATIONS

STATION/POSITION TIME  TEMP    WIND        PRES    WAVE
                       AIR SEA DIR/SP/G            HT/PER
                 (UTC) (F)     (DEG/KT/KT) (MB)    (FT/S)
64 S DAUPHIN ISL 1454   82 86   30/ 10/ 14 1017.7

$$




USA.gov is the U.S. government's official web portal to all federal, state and local government web resources and services.